User: anonymous   Login
Location: Vancouver
(49.2500°N, 123.1330°W)
Time: 18:57:31
(UTC-07:00)
Language:

Cosmos 676 Rocket - Orbit

View from above orbital plane
View from above orbital plane
View from above satellite
View from above satellite

Ground track
Ground track

The orbit data is extracted from the following two-line orbital elements,

1  7434U 74071B   17290.57288677 +.00000060 +00000-0 +29314-4 0  9995
2  7434 074.0483 349.2716 0021622 232.0719 127.8480 14.36649501254016
Epoch (UTC): 17 October 2017 13:44:57
Eccentricity: 0.0021622
inclination: 74.0483°
perigee height: 754 km
apogee height: 785 km
right ascension of ascending node: 349.2716°
argument of perigee: 232.0719°
revolutions per day: 14.36649501
mean anomaly at epoch: 127.8480°
orbit number at epoch: 25401

The dashed part of the orbit path shows where the satellite is in the earth's shadow,  

DLR